Weather History for Pecos, TX

Change the Weather History Date:

Thursday, November 8, 2012

  Actual Average Record
Temperature  
Mean Temperature 64 °F -  
Max Temperature 89 °F 72 °F 92 °F (1973)
Min Temperature 39 °F 40 °F 18 °F (1938)
Degree Days  
Heating Degree Days 1    
Growing Degree Days 14 (Base 50)    
Moisture  
Dew Point 35 °F    
Average Humidity 42    
Maximum Humidity 69    
Minimum Humidity 14    
Precipitation  
Precipitation 0.00 in - - ()
Sea Level Pressure  
Sea Level Pressure 29.96 in    
Wind  
Wind Speed 4 mph (South)    
Max Wind Speed 13 mph    
Max Gust Speed -    
Visibility 10 miles    
Events      
Averages and records for this station are not official NWS values.
T = Trace of Precipitation, MM = Missing Value Source: NWS Daily Summary

Daily Weather History Graph

Daily Weather History Graph

Search for Another Location

Airport:

Trip Planner

Search our weather history database for the weather conditions in past years. The results will help you decide how hot, cold, wet, or windy it might be!

Date:

Astronomy

Nov. 08, 2012 Rise Set
Actual Time 7:16 AM CST 5:59 PM CST
Civil Twilight 6:50 AM CST 6:24 PM CST
Nautical Twilight 6:21 AM CST 6:53 PM CST
Astronomical Twilight 5:52 AM CST 7:22 PM CST
Moon 1:35 AM CST (11/8) 2:22 PM CST (11/8)
Length of Visible Light 11h 34m
Length of Day
10h 43m
Waning Crescent, 32% of the Moon is Illuminated
Nov 8
Waning Crescent
Nov 13
New
Nov 20
First Quarter
Nov 28
Full
Dec 6
Last Quarter

Hourly Weather History & Observations

Time (CST) Temp. Windchill Dew Point Humidity Pressure Visibility Wind Dir Wind Speed Gust Speed Precip Events Conditions
12:15 AM 47.5 °F - 36.0 °F 64% 30.02 in 10.0 mi Calm Calm - N/A   Clear
12:35 AM 47.5 °F - 36.3 °F 65% 30.02 in 10.0 mi SSW 4.6 mph - N/A   Clear
12:55 AM 46.6 °F - 34.3 °F 62% 30.02 in 10.0 mi SSW 6.9 mph - N/A   Clear
1:15 AM 48.2 °F - 32.0 °F 54% 30.01 in 10.0 mi SW 5.8 mph - N/A   Clear
1:35 AM 48.2 °F - 30.2 °F 50% 30.01 in 10.0 mi West 8.1 mph - N/A   Clear
1:55 AM 48.6 °F - 29.1 °F 47% 30.01 in 10.0 mi West 6.9 mph - N/A   Clear
2:15 AM 47.5 °F - 29.5 °F 50% 30.01 in 10.0 mi WSW 6.9 mph - N/A   Clear
2:35 AM 49.3 °F - 28.4 °F 45% 30.00 in 10.0 mi West 3.5 mph - N/A   Clear
2:55 AM 47.3 °F - 28.8 °F 49% 30.00 in 10.0 mi West 3.5 mph - N/A   Clear
3:15 AM 47.5 °F - 28.4 °F 48% 30.00 in 10.0 mi Calm Calm - N/A   Clear
3:35 AM 44.1 °F - 32.2 °F 63% 30.00 in 10.0 mi Calm Calm - N/A   Clear
3:55 AM 44.8 °F - 31.8 °F 60% 30.00 in 10.0 mi Calm Calm - N/A   Clear
4:15 AM 45.0 °F 43.5 °F 31.3 °F 59% 29.99 in 10.0 mi ESE 3.5 mph - N/A   Clear
4:35 AM 44.1 °F 41.5 °F 30.0 °F 58% 29.99 in 10.0 mi SSE 4.6 mph - N/A   Clear
5:15 AM 39.9 °F - 29.5 °F 66% 30.00 in 10.0 mi Calm Calm - N/A   Clear
5:35 AM 40.5 °F - 29.8 °F 66% 30.00 in 10.0 mi Calm Calm - N/A   Clear
5:55 AM 42.1 °F - 29.7 °F 61% 30.00 in 10.0 mi Calm Calm - N/A   Clear
6:15 AM 40.6 °F 37.5 °F 29.8 °F 65% 30.02 in 10.0 mi WNW 4.6 mph - N/A   Clear
6:55 AM 40.8 °F 38.8 °F 31.1 °F 68% 30.02 in 10.0 mi WNW 3.5 mph - N/A   Clear
7:15 AM 40.6 °F 38.6 °F 31.1 °F 69% 30.02 in 10.0 mi NW 3.5 mph - N/A   Clear
7:35 AM 41.9 °F 39.0 °F 32.4 °F 69% 30.02 in 10.0 mi NW 4.6 mph - N/A   Clear
7:55 AM 43.5 °F 41.9 °F 33.4 °F 68% 30.03 in 10.0 mi NW 3.5 mph - N/A   Clear
8:15 AM 44.8 °F 42.4 °F 34.7 °F 68% 30.04 in 10.0 mi NNW 4.6 mph - N/A   Clear
8:55 AM 50.0 °F - 35.6 °F 58% 30.05 in 10.0 mi Calm Calm - N/A   Clear
9:55 AM 58.5 °F - 43.2 °F 57% 30.05 in 10.0 mi ENE 3.5 mph - N/A   Clear
10:15 AM 62.6 °F - 43.5 °F 50% 30.05 in 10.0 mi Calm Calm - N/A   Clear
10:35 AM 66.7 °F - 41.5 °F 40% 30.04 in 10.0 mi East 4.6 mph - N/A   Clear
10:55 AM 70.2 °F - 42.4 °F 37% 30.03 in 10.0 mi East 4.6 mph - N/A   Clear
11:15 AM 71.1 °F - 40.3 °F 33% 30.02 in 10.0 mi ENE 4.6 mph - N/A   Clear
11:35 AM 71.8 °F - 41.5 °F 34% 30.02 in 10.0 mi NNE 3.5 mph - N/A   Clear
12:55 PM 82.8 °F - 39.4 °F 21% 29.96 in 10.0 mi East 4.6 mph - N/A   Clear
1:35 PM 87.4 °F - 36.7 °F 17% 29.92 in 10.0 mi ESE 4.6 mph - N/A   Clear
1:55 PM 89.4 °F - 35.2 °F 15% 29.91 in 10.0 mi SE 3.5 mph - N/A   Clear
2:15 PM 87.8 °F - 32.9 °F 14% 29.90 in 10.0 mi South 3.5 mph - N/A   Clear
2:55 PM 86.5 °F - 33.6 °F 15% 29.89 in 10.0 mi SE 4.6 mph - N/A   Clear
3:15 PM 87.3 °F - 33.3 °F 15% 29.88 in 10.0 mi Calm Calm - N/A   Clear
4:35 PM 84.2 °F - 34.2 °F 17% 29.86 in 10.0 mi SE 6.9 mph - N/A   Clear
4:55 PM 85.8 °F - 34.7 °F 16% 29.86 in 10.0 mi South 8.1 mph - N/A   Clear
5:15 PM 82.4 °F - 34.9 °F 18% 29.88 in 10.0 mi South 12.7 mph - N/A   Clear
5:35 PM 80.4 °F - 35.8 °F 20% 29.88 in 10.0 mi South 8.1 mph - N/A   Clear
5:55 PM 77.0 °F - 36.5 °F 23% 29.88 in 10.0 mi SSW 6.9 mph - N/A   Clear
6:15 PM 75.0 °F - 36.5 °F 25% 29.88 in 10.0 mi SSW 4.6 mph - N/A   Clear
6:35 PM 75.2 °F - 36.3 °F 24% 29.89 in 10.0 mi SW 3.5 mph - N/A   Clear
6:55 PM 72.1 °F - 36.5 °F 27% 29.90 in 10.0 mi South 4.6 mph - N/A   Clear
7:15 PM 69.3 °F - 35.8 °F 29% 29.90 in 10.0 mi SSW 8.1 mph - N/A   Clear
7:35 PM 67.5 °F - 35.6 °F 31% 29.91 in 10.0 mi SSW 9.2 mph - N/A   Clear
7:55 PM 66.4 °F - 34.9 °F 31% 29.91 in 10.0 mi SSW 8.1 mph - N/A   Clear
8:15 PM 62.8 °F - 34.7 °F 35% 29.92 in 10.0 mi SSE 3.5 mph - N/A   Clear
8:35 PM 62.6 °F - 34.5 °F 35% 29.93 in 10.0 mi SE 11.5 mph - N/A   Clear
8:55 PM 66.9 °F - 34.9 °F 31% 29.93 in 10.0 mi SE 6.9 mph - N/A   Clear
9:15 PM 63.7 °F - 35.1 °F 34% 29.93 in 10.0 mi ESE 11.5 mph - N/A   Clear
9:35 PM 63.5 °F - 35.8 °F 36% 29.93 in 10.0 mi SE 10.4 mph - N/A   Clear
9:55 PM 66.2 °F - 36.3 °F 33% 29.93 in 10.0 mi SE 9.2 mph - N/A   Clear
10:15 PM 66.2 °F - 36.0 °F 33% 29.93 in 10.0 mi SE 6.9 mph - N/A   Clear
10:35 PM 64.9 °F - 36.3 °F 35% 29.93 in 10.0 mi SE 3.5 mph - N/A   Clear
10:55 PM 63.9 °F - 37.0 °F 37% 29.93 in 10.0 mi Calm Calm - N/A   Clear
11:15 PM 62.1 °F - 38.5 °F 42% 29.93 in 10.0 mi SE 9.2 mph - N/A   Clear
11:35 PM 62.1 °F - 39.4 °F 43% 29.93 in 10.0 mi SE 8.1 mph - N/A   Clear
11:55 PM 60.3 °F - 39.4 °F 46% 29.93 in 10.0 mi SSE 5.8 mph - N/A   Clear